SCP
0 -0 -0 -0 -0 -0 -0 -0 -0 -0 -0 -0 -0 -0 -0 -0 -0 -0 -0 0 0 0 0 0 0 0 0 0 0 0 0 0 0 0 0 0 0 0 0 0 0 0 0 0 0 0 0 0 0 1 1 1 1 0
-0 -0 -0 -0 -0 -0 -0 -0 -0 -0 -0 -0 -0 -0 -0 -0 -0 -0 -0 -0 -0 0 0 0 0 0 0 0 0 0 0 0 0 0 0 0 0 0 0 0 0 0 0 0 0 0 0 0 0 0 1 1 1 0
-0 -0 -0 -0 0 -0 -0 -0 -0 -0 -0 -0 -0 -0 -0 -0 -0 -0 -0 0 0 0 -0 0 0 0 0 0 0 0 0 0 0 0 0 0 0 0 0 0 0 0 0 0 0 0 0 0 0 0 0 0 0 0
-0 -0 -0 -0 -0 0 -0 -0 -0 -0 -0 -0 -0 -0 -0 -0 0 -0 -0 0 0 -0 -0 0 0 0 0 0 0 0 0 0 0 0 0 0 0 0 0 0 0 0 0 0 0 0 0 0 -0 0 0 0 0 0
-0 -0 -0 -0 -0 -0 -0 -0 -0 -0 -0 -0 -0 -0 0 -0 -0 -0 0 0 0 0 0 0 0 0 0 0 0 0 0 0 0 0 0 0 0 0 0 0 0 0 0 0 0 0 0 0 0 0 0 0 0 0
-0 0 -0 -0 0 0 0 -0 -0 -0 -0 -0 0 0 -0 -0 -0 0 0 0 0 0 0 0 0 0 0 0 0 0 0 0 0 0 0 0 0 0 0 0 0 0 0 0 0 0 0 0 0 0 0 0 0 0
-0 -0 -0 -0 -0 0 0 0 -0 -0 -0 -0 -0 -0 -0 -0 0 0 0 0 0 0 0 0 0 0 0 0 0 0 0 0 0 0 0 0 0 0 0 0 0 0 0 0 0 0 0 0 0 0 0 0 0 0
-0 -0 -0 -0 -0 0 0 -0 0 -0 -0 -0 -0 -0 -0 -0 -0 0 0 0 0 0 0 0 0 0 0 0 0 0 0 0 0 0 0 0 0 0 0 0 -0 0 0 0 0 0 0 0 0 0 0 0 0 0
-0 -0 -0 -0 -0 0 -0 -0 -0 -0 -0 -0 -0 -0 0 0 -0 0 0 0 -0 -0 0 0 0 0 0 0 0 0 0 0 0 0 0 0 0 0 0 0 0 0 0 0 0 0 0 0 0 0 0 0 0 0
-0 -0 -0 -0 -0 0 -0 -0 -0 -0 -0 0 -0 0 0 0 0 0 0 0 0 0 0 0 0 0 0 0 0 0 0 0 0 0 0 0 0 0 0 0 0 0 0 0 0 0 0 0 0 0 0 0 0 0
-0 -0 -0 0 0 0 0 -0 -0 -0 -0 0 0 0 0 0 0 0 0 0 0 0 0 0 0 0 0 0 0 0 0 0 0 0 0 0 0 0 0 0 0 0 0 0 0 0 0 0 0 0 0 0 0 0
-0 -0 -0 -0 0 0 0 0 0 0 0 0 0 0 0 0 0 0 0 0 0 0 0 0 0 0 0 0 0 0 0 0 0 0 0 0 0 0 0 0 0 0 0 0 0 0 0 0 0 0 0 0 0 0
-0 -0 -0 0 0 0 0 0 0 0 0 0 0 0 0 0 0 0 0 0 0 0 0 0 0 0 0 0 0 0 0 0 0 0 0 -0 0 0 0 0 0 0 0 0 0 0 0 0 0 0 0 0 0 0
-0 -0 0 0 0 0 0 0 0 0 0 0 0 0 0 0 0 0 0 0 0 0 0 0 0 0 0 0 0 0 0 0 0 0 0 0 0 0 0 0 0 0 0 0 0 0 0 0 0 0 0 0 0 0
-0 -0 0 0 0 0 0 0 0 0 0 0 0 0 0 0 0 0 0 0 0 0 0 0 0 0 0 0 0 0 0 0 0 0 0 0 0 0 0 0 0 0 0 0 0 0 0 0 0 0 0 0 0 0
-0 -0 0 0 0 0 0 0 0 0 0 0 0 0 0 0 0 0 0 0 0 0 0 0 0 0 0 0 0 0 0 0 0 0 0 0 0 0 0 -0 0 0 0 0 0 0 0 0 0 0 0 0 0 0
0 0 0 0 0 0 0 0 0 0 0 0 0 0 0 0 0 0 0 0 0 0 0 0 0 0 0 0 0 0 0 0 0 0 0 0 0 0 0 0 0 0 0 0 0 0 0 0 0 0 0 0 0 0
0 0 0 0 0 0 0 0 0 0 0 0 0 0 0 0 0 0 0 0 0 0 0 0 0 0 0 0 0 0 0 0 0 0 0 0 0 0 0 0 0 0 0 0 0 0 0 0 0 0 0 0 0 0
0 0 0 0 0 0 0 0 0 0 0 0 0 0 0 0 0 0 0 0 0 0 0 0 0 0 0 0 0 0 0 0 0 0 0 0 0 0 0 0 0 0 0 0 0 0 0 0 0 0 0 0 0 0
0 0 0 0 0 0 0 0 0 0 0 0 0 0 0 0 0 0 0 0 0 0 0 0 0 0 0 0 0 0 0 0 0 0 0 0 0 0 0 0 0 0 0 0 0 0 0 0 0 0 0 0 0 0
0 0 0 0 0 0 0 0 0 0 0 0 0 0 0 0 0 0 0 0 0 0 0 0 0 0 0 0 0 0 0 0 0 0 0 0 0 0 0 0 0 0 0 0 0 0 0 0 0 0 0 0 0 0
0 0 0 0 0 0 0 0 0 0 0 0 0 0 0 0 0 0 0 0 0 0 0 0 0 0 0 0 0 0 0 0 0 0 0 0 0 0 0 0 0 0 0 0 0 0 0 0 0 0 0 0 0 0
0 0 0 0 0 0 0 0 0 0 0 0 0 0 0 0 0 0 0 0 0 0 0 0 0 0 0 0 0 0 0 0 0 0 0 0 0 0 0 0 0 0 0 0 0 0 0 0 0 0 0 0 0 0
0 0 0 0 0 0 0 0 0 0 0 0 0 0 0 0 0 0 0 0 0 0 0 0 0 0 0 0 0 0 0 0 0 0 0 0 0 0 0 0 0 -0 0 0 0 0 0 0 0 0 0 0 0 0
0 0 0 0 0 0 0 0 0 0 0 0 0 0 0 0 0 0 0 0 0 0 0 0 0 0 0 0 0 0 0 0 0 0 0 0 0 0 0 0 0 0 0 0 0 0 0 0 0 0 0 0 0 0
0 0 0 0 0 0 0 0 0 0 0 0 0 0 0 0 0 0 0 0 0 0 0 0 0 0 0 0 1 1 0 0 0 0 0 0 0 0 0 0 0 0 0 0 0 0 0 0 0 0 0 0 0 0
0 0 0 0 0 0 0 0 0 0 0 0 0 0 0 0 0 0 0 0 0 0 0 0 0 0 0 0 0 1 0 0 0 0 0 0 0 0 0 0 0 0 0 0 0 0 -0 -0 -0 -0 -0 -0 -0 -0
0 0 0 0 0 0 0 0 0 0 0 0 0 0 0 0 0 -0 -0 0 0 -0 0 0 0 1 0 0 1 1 0 0 0 0 0 0 0 0 0 0 0 0 0 0 0 0 -0 -0 -0 -0 -0 0 0 0
0 0 0 0 0 0 0 0 0 0 0 -0 -0 -0 -0 -0 -0 -0 0 0 0 0 0 0 0 0 1 1 0 0 0 0 0 0 0 0 0 0 0 0 0 0 0 0 0 0 0 0 0 0 0 0 0 0
0 0 0 0 0 0 0 0 0 -0 -0 -0 -0 -0 -0 -0 -0 0 0 0 0 0 0 0 0 0 0 0 0 0 0 0 0 0 0 0 0 0 0 0 0 0 0 0 0 0 0 0 0 0 0 0 0 0
0 0 0 0 0 0 0 0 -0 -0 -0 -0 -0 -0 -0 0 -0 -0 0 0 0 0 -0 0 0 0 0 -0 0 0 0 0 0 0 -0 -0 0 0 0 0 0 0 0 0 0 0 0 0 0 0 0 0 0 0
0 0 0 0 0 0 -0 -0 -0 -0 -0 -0 -0 -0 0 0 -0 -0 0 0 0 0 0 0 -0 0 0 -0 0 0 0 0 0 0 0 0 0 0 -0 0 0 0 0 0 0 0 0 0 0 0 0 0 0 0
0 0 0 0 0 0 0 0 0 0 -0 -0 -0 0 0 0 -0 -0 0 0 0 0 -0 0 0 0 0 0 0 0 0 0 0 0 0 0 0 0 0 0 0 0 0 0 0 0 0 0 0 0 0 0 0 0
Wind_Speed_500mb
43 44 49 54 56 61 64 65 69 69 72 74 73 72 71 58 46 36 19 33 21 13 11 11 14 15 16 11 14 36 21 2 16 15 17 23 25 28 33 37 36 30 10 10 13 44 10 35 7 5 17 20 20 17
43 45 51 54 55 60 61 62 67 66 73 73 73 73 69 58 43 35 18 27 19 11 19 19 10 7 3 6 15 21 23 15 11 9 14 11 21 19 25 24 21 18 19 10 12 5 16 30 30 36 33 25 20 16
41 45 48 55 58 57 59 63 66 66 70 74 75 75 71 59 41 31 25 30 27 18 32 17 14 10 6 11 10 13 13 14 12 14 15 10 14 13 17 19 27 26 15 6 10 13 25 24 20 18 20 17 15 11
39 43 48 53 58 62 61 64 67 66 68 72 74 76 72 61 40 20 16 20 21 14 12 10 8 14 11 14 15 16 23 21 24 23 23 14 18 22 19 22 22 25 18 12 14 21 17 12 10 12 10 10 10 11
39 41 47 50 57 61 65 67 70 64 68 72 73 75 70 64 31 10 13 9 19 18 13 34 41 31 17 10 15 16 19 22 23 23 17 17 29 25 27 25 23 28 25 18 17 20 22 15 20 17 6 5 5 7
41 40 45 50 56 60 63 68 73 65 69 70 74 76 69 53 12 18 8 3 13 28 15 8 5 9 11 14 18 21 22 24 26 27 24 28 32 30 13 19 27 32 35 39 36 31 35 31 27 22 15 9 11 10
40 42 43 49 56 59 63 72 72 72 69 69 74 72 60 14 9 2 5 11 32 32 9 12 8 11 5 15 20 24 22 25 26 30 31 35 38 38 22 26 38 39 33 32 29 26 29 33 34 32 19 18 20 15
41 44 45 52 59 62 68 69 72 72 67 71 66 55 26 8 11 6 6 26 45 4 9 7 11 9 4 16 19 9 17 27 33 40 40 30 40 37 22 34 52 47 41 41 38 37 41 39 38 40 42 36 36 34
42 46 50 54 61 63 62 70 73 71 71 71 48 33 9 10 5 14 50 21 10 5 13 7 10 11 5 21 15 27 37 18 37 24 32 35 24 20 23 40 53 50 38 32 30 37 39 41 43 46 42 42 41 38
44 47 51 55 57 62 68 71 74 68 73 75 35 16 4 9 49 15 8 4 7 9 9 12 15 13 21 27 32 31 24 18 20 22 32 23 27 52 53 56 51 48 44 38 36 35 41 46 43 41 43 44 45 40
44 46 51 52 55 62 68 71 71 70 70 44 25 12 32 36 8 5 5 8 6 9 12 8 15 15 24 21 18 13 12 12 15 17 25 26 27 28 38 43 51 46 30 19 26 32 37 46 44 38 39 40 36 40
44 48 49 52 57 62 65 67 64 66 57 52 38 35 18 7 5 7 6 4 10 6 12 13 24 26 26 14 12 14 16 9 12 16 12 14 12 10 17 16 8 7 8 17 19 23 26 31 39 38 32 33 35 33
45 47 49 54 58 60 60 61 62 67 61 26 10 7 8 7 6 9 4 7 13 21 28 34 28 31 31 11 9 9 9 12 28 11 21 19 21 8 5 4 2 5 11 13 15 15 19 25 30 34 45 30 22 25
47 50 53 57 59 55 58 59 62 60 40 10 9 9 7 9 10 7 15 17 23 28 28 28 26 19 30 12 9 10 11 12 11 18 27 9 25 26 21 20 20 18 21 12 11 14 18 21 27 28 31 33 36 30
54 56 59 59 53 57 57 57 54 49 8 10 10 7 12 21 26 26 31 25 23 26 25 28 28 28 20 10 6 9 9 12 11 19 5 13 16 21 26 36 51 61 51 35 34 32 37 38 44 49 34 36 37 32
61 63 52 55 58 58 58 53 38 14 8 9 13 16 27 28 29 34 30 27 26 24 20 16 7 8 8 5 9 15 10 14 9 12 30 39 62 74 87 95 88 71 64 70 71 74 86 76 79 82 66 41 45 42
60 46 58 57 57 53 48 38 8 11 11 10 15 23 34 37 31 30 33 33 28 22 5 2 6 11 7 9 12 10 19 15 45 69 79 84 88 85 82 83 78 72 72 74 70 66 62 53 55 60 60 48 50 46
57 45 52 46 49 47 17 9 9 11 15 24 28 25 27 33 35 33 32 30 25 14 7 7 9 9 8 9 12 23 57 77 80 80 90 90 89 99 94 88 83 81 80 75 62 57 54 47 51 58 52 37 50 43
51 48 39 35 36 30 9 9 9 12 17 30 30 28 30 37 35 32 31 18 5 7 9 4 9 8 9 24 44 68 75 77 80 89 93 97 94 95 91 93 84 79 72 67 62 59 55 45 45 47 41 36 41 45
40 31 28 27 19 7 10 11 11 16 16 20 38 33 29 37 36 27 26 16 10 12 10 6 13 38 52 68 80 84 90 88 84 88 92 87 81 79 82 74 64 49 49 51 50 58 46 46 48 45 46 45 44 39
23 24 22 15 8 7 13 14 15 21 29 24 32 37 32 32 30 27 21 6 9 10 14 31 57 78 83 87 89 90 92 94 90 82 82 42 43 38 34 35 33 37 40 45 50 61 64 57 56 55 53 56 28 43
15 16 8 12 7 8 12 14 16 28 19 27 39 33 34 21 19 19 18 20 13 13 22 53 70 78 83 81 83 72 71 68 51 37 33 36 37 36 35 34 36 35 31 34 47 49 52 52 60 60 62 36 37 39
10 11 6 7 7 8 15 11 10 10 9 15 33 23 20 14 16 23 10 6 13 29 38 56 71 75 72 67 58 64 55 38 33 26 30 32 34 33 31 28 25 9 10 24 27 37 43 52 61 50 55 49 42 32
10 6 6 6 11 11 12 10 12 12 16 17 9 14 15 12 25 16 4 10 32 34 49 67 69 67 57 57 60 62 41 29 29 26 24 22 24 28 26 28 22 12 8 15 21 31 40 46 57 51 47 46 35 31
7 7 7 10 11 9 10 9 24 14 11 21 28 19 9 10 7 6 6 13 15 36 55 69 61 51 47 59 61 38 27 29 30 29 30 25 24 25 30 26 21 17 20 15 19 29 43 36 52 45 36 28 31 31
8 13 15 11 11 11 7 11 8 8 17 20 9 7 10 8 6 9 10 15 44 55 55 68 66 62 61 48 53 38 23 25 25 29 24 20 20 15 17 20 20 25 32 31 31 29 34 43 40 47 49 39 39 37
8 12 19 18 22 19 18 28 31 27 9 7 6 6 5 5 8 8 19 45 62 61 69 75 53 46 47 50 43 33 29 13 17 23 19 22 16 18 10 10 13 12 4 5 10 14 21 24 27 30 30 35 38 41
15 13 18 20 24 17 15 17 9 8 5 8 6 4 5 8 8 32 43 53 58 70 71 58 37 27 28 31 30 26 28 27 9 12 15 16 15 15 16 14 17 17 10 7 9 7 11 18 29 33 37 37 33 35
13 14 15 22 23 12 11 11 11 14 14 18 16 17 32 45 50 56 63 60 62 59 47 45 36 23 23 30 21 31 29 33 31 23 19 9 4 5 2 4 8 9 5 12 9 7 6 17 21 26 34 34 18 27
17 20 14 7 8 11 19 21 26 30 32 34 38 44 44 41 37 39 50 53 46 45 45 49 40 18 35 26 30 27 36 36 27 24 17 15 11 16 13 19 21 12 4 17 18 13 16 15 12 11 25 42 60 69
7 6 9 16 17 27 28 33 37 37 39 42 39 41 44 40 36 32 25 26 27 35 36 48 40 38 29 40 34 34 38 39 31 32 37 34 27 26 22 25 33 38 31 37 50 71 62 59 67 67 66 70 79 85
12 16 9 7 17 21 33 28 27 30 31 30 29 27 25 21 23 25 14 16 21 23 28 41 62 24 26 34 34 30 26 37 51 56 58 44 54 60 61 58 59 57 55 57 60 56 51 52 71 79 75 62 55 50
15 13 15 18 13 8 13 18 11 12 16 19 25 29 37 22 22 28 20 14 17 15 16 27 17 37 17 18 24 38 38 28 26 23 22 23 25 30 37 40 44 47 49 43 41 41 54 49 50 49 43 43 49 52
Wind_Direction_500mb
3 5 6 4 5 6 6 6 5 4 4 3 4 4 5 4 5 19 36 356 11 322 359 3 340 330 325 311 315 350 314 233 301 284 273 270 267 269 272 270 272 274 200 152 257 267 201 21 40 33 107 131 89 78
4 4 4 4 3 2 2 2 2 0 0 0 1 1 360 360 359 0 3 347 345 289 306 319 281 259 237 315 320 317 301 294 347 306 340 326 315 307 300 287 312 285 314 343 349 100 94 57 53 40 80 76 58 70
355 357 358 360 360 360 359 360 0 359 357 356 356 356 356 356 356 355 11 356 351 299 301 243 227 221 254 276 285 291 354 352 292 16 309 293 290 320 289 291 309 289 35 318 354 75 96 88 73 65 74 83 81 56
346 349 350 351 354 355 355 355 355 353 351 350 351 351 351 352 354 357 50 359 9 320 285 146 193 271 257 261 268 272 282 282 275 281 270 279 286 287 281 293 285 290 338 332 308 283 268 174 177 148 103 85 74 52
337 343 347 348 350 350 353 354 352 350 348 347 347 346 343 346 354 37 56 24 26 19 318 300 291 272 239 266 262 275 274 277 274 267 252 256 262 272 274 279 273 280 285 279 281 296 317 334 58 116 128 14 31 9
336 338 344 344 344 346 347 348 351 346 346 344 343 343 340 343 47 65 191 264 327 355 311 286 222 234 267 265 274 273 268 271 268 272 275 275 272 276 269 267 269 265 266 265 275 273 277 277 269 262 212 233 288 288
332 337 338 341 340 341 342 345 346 346 344 344 339 338 340 11 22 261 300 254 323 329 255 274 268 131 272 267 272 266 254 262 263 270 266 270 268 262 265 264 271 276 287 284 282 277 267 264 268 267 258 238 261 250
327 331 332 334 335 335 338 340 342 344 345 343 338 335 349 28 40 12 273 294 317 226 255 277 281 184 127 311 283 267 281 275 267 267 261 265 273 262 249 256 261 266 271 269 267 263 263 260 250 247 252 256 251 254
323 326 328 330 332 334 336 338 340 342 344 345 343 340 329 33 321 315 307 311 163 244 304 280 300 333 27 298 290 298 283 261 272 262 263 252 249 240 257 247 253 263 266 274 279 279 270 257 259 253 243 244 250 251
320 322 325 327 330 335 337 336 338 340 342 350 357 329 259 336 318 332 340 154 203 200 241 269 299 286 356 336 310 310 303 288 268 269 283 243 251 261 266 270 273 274 275 281 284 276 276 280 268 254 252 252 247 250
317 319 323 325 330 333 335 335 338 341 346 351 335 288 285 315 344 254 288 251 157 236 188 289 323 313 331 337 329 301 298 310 287 275 262 260 262 263 263 272 259 259 258 272 275 277 273 265 273 266 249 247 247 243
312 317 319 321 325 329 333 335 337 340 340 325 305 291 315 309 264 284 261 199 224 355 348 321 315 306 300 308 289 300 283 252 249 293 293 266 285 22 6 352 52 166 227 268 274 281 279 277 265 269 267 256 237 242
307 312 316 319 323 326 330 332 333 333 335 330 323 262 284 284 352 237 307 351 354 331 331 326 309 311 306 300 283 269 260 256 296 261 256 269 309 149 54 18 323 254 247 258 279 290 282 274 268 255 254 248 244 241
308 311 315 317 322 323 325 326 329 331 339 289 293 316 253 229 235 351 335 313 333 317 297 298 299 291 290 285 231 259 267 266 244 253 257 37 49 37 25 8 346 325 342 301 292 303 328 329 324 296 270 241 242 228
307 312 314 317 318 321 323 323 326 321 296 271 263 245 242 265 308 310 301 313 317 317 324 320 311 300 275 229 245 258 249 243 236 241 340 67 19 347 329 324 317 305 300 300 288 289 291 293 300 298 284 264 226 229
308 313 313 316 317 323 324 323 329 334 260 248 242 259 277 308 312 322 318 315 322 325 348 331 326 283 273 225 248 233 242 235 300 357 333 322 316 305 306 302 296 287 285 285 284 280 273 274 278 276 269 288 230 217
308 311 308 315 318 325 321 319 300 239 250 243 248 259 280 282 285 312 314 305 303 295 348 343 256 241 348 258 240 245 264 317 328 312 300 293 291 290 287 285 281 277 271 270 270 266 263 260 257 255 258 268 224 206
302 303 307 316 323 333 323 293 264 258 250 255 271 286 303 300 295 295 307 307 298 306 217 228 258 255 242 252 259 282 288 284 284 284 286 285 283 286 288 282 279 274 269 260 267 253 253 243 247 242 240 250 209 207
300 303 310 317 324 329 294 237 229 267 265 291 291 297 303 297 292 293 296 303 245 233 161 169 245 239 245 241 263 274 279 286 288 289 287 285 282 282 282 280 277 274 268 253 260 236 239 234 231 230 236 214 216 196
301 305 307 308 317 305 276 256 227 271 284 293 304 295 306 306 301 299 295 277 190 153 149 214 226 244 258 272 277 277 281 285 287 287 288 289 287 277 286 277 269 264 259 259 247 227 228 226 221 215 210 199 231 199
315 314 324 327 292 245 267 287 257 275 298 293 294 310 305 302 308 307 313 200 205 212 219 244 258 286 299 301 304 300 298 295 282 283 283 317 321 301 298 295 284 269 257 250 211 224 221 223 210 205 192 208 209 177
294 312 325 278 265 253 263 256 269 296 289 280 295 296 297 322 330 323 315 235 225 250 262 285 298 305 305 306 312 317 316 313 322 320 331 328 322 316 314 313 305 286 259 234 221 218 216 213 198 202 192 186 193 192
304 331 267 247 258 256 265 267 265 277 276 303 324 328 327 319 307 309 274 314 266 289 318 325 329 322 313 322 328 329 332 330 339 351 346 338 340 336 337 340 337 287 232 214 207 202 201 192 190 188 185 167 174 185
287 263 251 247 225 267 280 241 246 277 298 307 315 315 296 309 304 283 234 246 283 307 319 332 330 328 334 335 333 338 343 347 358 355 345 339 352 6 12 11 15 34 122 144 179 187 186 184 178 163 155 173 183 187
251 238 213 254 236 239 252 241 233 229 262 313 302 279 270 298 304 299 275 277 336 328 324 339 345 345 336 337 345 357 357 355 358 360 354 359 11 23 37 45 48 80 106 135 167 163 165 152 173 179 185 188 202 212
246 215 203 233 213 216 262 306 332 280 288 308 276 255 296 322 279 262 270 341 333 329 331 335 338 328 333 332 337 347 357 2 8 21 6 22 26 26 46 63 87 114 83 98 115 136 148 164 171 188 197 213 218 225
252 238 214 242 268 283 276 288 298 295 293 258 273 301 301 273 266 274 21 352 319 325 327 327 332 327 329 332 336 340 358 330 359 25 23 32 33 29 51 71 107 144 25 32 140 154 161 174 188 203 217 229 238 239
242 277 268 252 254 268 295 302 275 264 225 228 280 272 258 226 263 320 336 310 319 326 329 333 322 324 352 3 8 6 14 32 64 44 64 48 56 59 76 95 116 132 164 175 189 216 175 210 220 223 226 224 223 230
235 241 259 272 270 262 238 236 259 260 281 297 286 276 269 283 292 300 301 310 314 310 316 331 343 356 359 6 358 25 24 25 37 41 34 46 57 342 341 2 346 356 234 334 303 275 253 237 244 254 252 267 268 168
259 242 235 264 250 236 236 234 268 284 288 285 285 290 289 288 292 294 293 297 302 300 313 317 329 16 29 29 36 43 37 29 27 44 57 70 54 53 58 69 55 67 318 306 345 1 22 26 35 89 127 117 112 126
222 255 273 257 263 261 271 279 283 285 284 282 279 275 281 292 302 300 296 295 298 311 329 340 14 41 47 36 36 51 40 32 44 41 37 47 74 71 69 70 56 64 65 73 72 61 80 98 102 107 111 108 108 110
227 215 230 250 285 298 303 288 286 284 279 271 273 276 271 273 285 293 284 294 300 324 356 356 25 351 43 53 55 61 77 72 74 69 64 82 80 86 95 97 84 84 79 69 66 66 75 89 95 95 100 103 101 106
228 249 264 281 273 262 312 327 290 291 279 256 262 263 272 266 280 281 284 288 293 325 340 345 18 30 42 60 76 62 62 58 54 60 53 58 79 74 92 101 86 72 61 60 63 76 100 101 112 119 120 115 112 110
Wind_Speed_850mb
43 44 49 54 56 61 64 65 69 69 72 74 73 72 71 58 46 36 19 33 21 13 11 11 14 15 16 11 14 36 21 2 16 15 17 23 25 28 33 37 36 30 10 10 13 44 10 35 7 5 17 20 20 17
43 45 51 54 55 60 61 62 67 66 73 73 73 73 69 58 43 35 18 27 19 11 19 19 10 7 3 6 15 21 23 15 11 9 14 11 21 19 25 24 21 18 19 10 12 5 16 30 30 36 33 25 20 16
41 45 48 55 58 57 59 63 66 66 70 74 75 75 71 59 41 31 25 30 27 18 32 17 14 10 6 11 10 13 13 14 12 14 15 10 14 13 17 19 27 26 15 6 10 13 25 24 20 18 20 17 15 11
39 43 48 53 58 62 61 64 67 66 68 72 74 76 72 61 40 20 16 20 21 14 12 10 8 14 11 14 15 16 23 21 24 23 23 14 18 22 19 22 22 25 18 12 14 21 17 12 10 12 10 10 10 11
39 41 47 50 57 61 65 67 70 64 68 72 73 75 70 64 31 10 13 9 19 18 13 34 41 31 17 10 15 16 19 22 23 23 17 17 29 25 27 25 23 28 25 18 17 20 22 15 20 17 6 5 5 7
41 40 45 50 56 60 63 68 73 65 69 70 74 76 69 53 12 18 8 3 13 28 15 8 5 9 11 14 18 21 22 24 26 27 24 28 32 30 13 19 27 32 35 39 36 31 35 31 27 22 15 9 11 10
40 42 43 49 56 59 63 72 72 72 69 69 74 72 60 14 9 2 5 11 32 32 9 12 8 11 5 15 20 24 22 25 26 30 31 35 38 38 22 26 38 39 33 32 29 26 29 33 34 32 19 18 20 15
41 44 45 52 59 62 68 69 72 72 67 71 66 55 26 8 11 6 6 26 45 4 9 7 11 9 4 16 19 9 17 27 33 40 40 30 40 37 22 34 52 47 41 41 38 37 41 39 38 40 42 36 36 34
42 46 50 54 61 63 62 70 73 71 71 71 48 33 9 10 5 14 50 21 10 5 13 7 10 11 5 21 15 27 37 18 37 24 32 35 24 20 23 40 53 50 38 32 30 37 39 41 43 46 42 42 41 38
44 47 51 55 57 62 68 71 74 68 73 75 35 16 4 9 49 15 8 4 7 9 9 12 15 13 21 27 32 31 24 18 20 22 32 23 27 52 53 56 51 48 44 38 36 35 41 46 43 41 43 44 45 40
44 46 51 52 55 62 68 71 71 70 70 44 25 12 32 36 8 5 5 8 6 9 12 8 15 15 24 21 18 13 12 12 15 17 25 26 27 28 38 43 51 46 30 19 26 32 37 46 44 38 39 40 36 40
44 48 49 52 57 62 65 67 64 66 57 52 38 35 18 7 5 7 6 4 10 6 12 13 24 26 26 14 12 14 16 9 12 16 12 14 12 10 17 16 8 7 8 17 19 23 26 31 39 38 32 33 35 33
45 47 49 54 58 60 60 61 62 67 61 26 10 7 8 7 6 9 4 7 13 21 28 34 28 31 31 11 9 9 9 12 28 11 21 19 21 8 5 4 2 5 11 13 15 15 19 25 30 34 45 30 22 25
47 50 53 57 59 55 58 59 62 60 40 10 9 9 7 9 10 7 15 17 23 28 28 28 26 19 30 12 9 10 11 12 11 18 27 9 25 26 21 20 20 18 21 12 11 14 18 21 27 28 31 33 36 30
54 56 59 59 53 57 57 57 54 49 8 10 10 7 12 21 26 26 31 25 23 26 25 28 28 28 20 10 6 9 9 12 11 19 5 13 16 21 26 36 51 61 51 35 34 32 37 38 44 49 34 36 37 32
61 63 52 55 58 58 58 53 38 14 8 9 13 16 27 28 29 34 30 27 26 24 20 16 7 8 8 5 9 15 10 14 9 12 30 39 62 74 87 95 88 71 64 70 71 74 86 76 79 82 66 41 45 42
60 46 58 57 57 53 48 38 8 11 11 10 15 23 34 37 31 30 33 33 28 22 5 2 6 11 7 9 12 10 19 15 45 69 79 84 88 85 82 83 78 72 72 74 70 66 62 53 55 60 60 48 50 46
57 45 52 46 49 47 17 9 9 11 15 24 28 25 27 33 35 33 32 30 25 14 7 7 9 9 8 9 12 23 57 77 80 80 90 90 89 99 94 88 83 81 80 75 62 57 54 47 51 58 52 37 50 43
51 48 39 35 36 30 9 9 9 12 17 30 30 28 30 37 35 32 31 18 5 7 9 4 9 8 9 24 44 68 75 77 80 89 93 97 94 95 91 93 84 79 72 67 62 59 55 45 45 47 41 36 41 45
40 31 28 27 19 7 10 11 11 16 16 20 38 33 29 37 36 27 26 16 10 12 10 6 13 38 52 68 80 84 90 88 84 88 92 87 81 79 82 74 64 49 49 51 50 58 46 46 48 45 46 45 44 39
23 24 22 15 8 7 13 14 15 21 29 24 32 37 32 32 30 27 21 6 9 10 14 31 57 78 83 87 89 90 92 94 90 82 82 42 43 38 34 35 33 37 40 45 50 61 64 57 56 55 53 56 28 43
15 16 8 12 7 8 12 14 16 28 19 27 39 33 34 21 19 19 18 20 13 13 22 53 70 78 83 81 83 72 71 68 51 37 33 36 37 36 35 34 36 35 31 34 47 49 52 52 60 60 62 36 37 39
10 11 6 7 7 8 15 11 10 10 9 15 33 23 20 14 16 23 10 6 13 29 38 56 71 75 72 67 58 64 55 38 33 26 30 32 34 33 31 28 25 9 10 24 27 37 43 52 61 50 55 49 42 32
10 6 6 6 11 11 12 10 12 12 16 17 9 14 15 12 25 16 4 10 32 34 49 67 69 67 57 57 60 62 41 29 29 26 24 22 24 28 26 28 22 12 8 15 21 31 40 46 57 51 47 46 35 31
7 7 7 10 11 9 10 9 24 14 11 21 28 19 9 10 7 6 6 13 15 36 55 69 61 51 47 59 61 38 27 29 30 29 30 25 24 25 30 26 21 17 20 15 19 29 43 36 52 45 36 28 31 31
8 13 15 11 11 11 7 11 8 8 17 20 9 7 10 8 6 9 10 15 44 55 55 68 66 62 61 48 53 38 23 25 25 29 24 20 20 15 17 20 20 25 32 31 31 29 34 43 40 47 49 39 39 37
8 12 19 18 22 19 18 28 31 27 9 7 6 6 5 5 8 8 19 45 62 61 69 75 53 46 47 50 43 33 29 13 17 23 19 22 16 18 10 10 13 12 4 5 10 14 21 24 27 30 30 35 38 41
15 13 18 20 24 17 15 17 9 8 5 8 6 4 5 8 8 32 43 53 58 70 71 58 37 27 28 31 30 26 28 27 9 12 15 16 15 15 16 14 17 17 10 7 9 7 11 18 29 33 37 37 33 35
13 14 15 22 23 12 11 11 11 14 14 18 16 17 32 45 50 56 63 60 62 59 47 45 36 23 23 30 21 31 29 33 31 23 19 9 4 5 2 4 8 9 5 12 9 7 6 17 21 26 34 34 18 27
17 20 14 7 8 11 19 21 26 30 32 34 38 44 44 41 37 39 50 53 46 45 45 49 40 18 35 26 30 27 36 36 27 24 17 15 11 16 13 19 21 12 4 17 18 13 16 15 12 11 25 42 60 69
7 6 9 16 17 27 28 33 37 37 39 42 39 41 44 40 36 32 25 26 27 35 36 48 40 38 29 40 34 34 38 39 31 32 37 34 27 26 22 25 33 38 31 37 50 71 62 59 67 67 66 70 79 85
12 16 9 7 17 21 33 28 27 30 31 30 29 27 25 21 23 25 14 16 21 23 28 41 62 24 26 34 34 30 26 37 51 56 58 44 54 60 61 58 59 57 55 57 60 56 51 52 71 79 75 62 55 50
15 13 15 18 13 8 13 18 11 12 16 19 25 29 37 22 22 28 20 14 17 15 16 27 17 37 17 18 24 38 38 28 26 23 22 23 25 30 37 40 44 47 49 43 41 41 54 49 50 49 43 43 49 52
Wind_Direction_850mb
3 5 6 4 5 6 6 6 5 4 4 3 4 4 5 4 5 19 36 356 11 322 359 3 340 330 325 311 315 350 314 233 301 284 273 270 267 269 272 270 272 274 200 152 257 267 201 21 40 33 107 131 89 78
4 4 4 4 3 2 2 2 2 0 0 0 1 1 360 360 359 0 3 347 345 289 306 319 281 259 237 315 320 317 301 294 347 306 340 326 315 307 300 287 312 285 314 343 349 100 94 57 53 40 80 76 58 70
355 357 358 360 360 360 359 360 0 359 357 356 356 356 356 356 356 355 11 356 351 299 301 243 227 221 254 276 285 291 354 352 292 16 309 293 290 320 289 291 309 289 35 318 354 75 96 88 73 65 74 83 81 56
346 349 350 351 354 355 355 355 355 353 351 350 351 351 351 352 354 357 50 359 9 320 285 146 193 271 257 261 268 272 282 282 275 281 270 279 286 287 281 293 285 290 338 332 308 283 268 174 177 148 103 85 74 52
337 343 347 348 350 350 353 354 352 350 348 347 347 346 343 346 354 37 56 24 26 19 318 300 291 272 239 266 262 275 274 277 274 267 252 256 262 272 274 279 273 280 285 279 281 296 317 334 58 116 128 14 31 9
336 338 344 344 344 346 347 348 351 346 346 344 343 343 340 343 47 65 191 264 327 355 311 286 222 234 267 265 274 273 268 271 268 272 275 275 272 276 269 267 269 265 266 265 275 273 277 277 269 262 212 233 288 288
332 337 338 341 340 341 342 345 346 346 344 344 339 338 340 11 22 261 300 254 323 329 255 274 268 131 272 267 272 266 254 262 263 270 266 270 268 262 265 264 271 276 287 284 282 277 267 264 268 267 258 238 261 250
327 331 332 334 335 335 338 340 342 344 345 343 338 335 349 28 40 12 273 294 317 226 255 277 281 184 127 311 283 267 281 275 267 267 261 265 273 262 249 256 261 266 271 269 267 263 263 260 250 247 252 256 251 254
323 326 328 330 332 334 336 338 340 342 344 345 343 340 329 33 321 315 307 311 163 244 304 280 300 333 27 298 290 298 283 261 272 262 263 252 249 240 257 247 253 263 266 274 279 279 270 257 259 253 243 244 250 251
320 322 325 327 330 335 337 336 338 340 342 350 357 329 259 336 318 332 340 154 203 200 241 269 299 286 356 336 310 310 303 288 268 269 283 243 251 261 266 270 273 274 275 281 284 276 276 280 268 254 252 252 247 250
317 319 323 325 330 333 335 335 338 341 346 351 335 288 285 315 344 254 288 251 157 236 188 289 323 313 331 337 329 301 298 310 287 275 262 260 262 263 263 272 259 259 258 272 275 277 273 265 273 266 249 247 247 243
312 317 319 321 325 329 333 335 337 340 340 325 305 291 315 309 264 284 261 199 224 355 348 321 315 306 300 308 289 300 283 252 249 293 293 266 285 22 6 352 52 166 227 268 274 281 279 277 265 269 267 256 237 242
307 312 316 319 323 326 330 332 333 333 335 330 323 262 284 284 352 237 307 351 354 331 331 326 309 311 306 300 283 269 260 256 296 261 256 269 309 149 54 18 323 254 247 258 279 290 282 274 268 255 254 248 244 241
308 311 315 317 322 323 325 326 329 331 339 289 293 316 253 229 235 351 335 313 333 317 297 298 299 291 290 285 231 259 267 266 244 253 257 37 49 37 25 8 346 325 342 301 292 303 328 329 324 296 270 241 242 228
307 312 314 317 318 321 323 323 326 321 296 271 263 245 242 265 308 310 301 313 317 317 324 320 311 300 275 229 245 258 249 243 236 241 340 67 19 347 329 324 317 305 300 300 288 289 291 293 300 298 284 264 226 229
308 313 313 316 317 323 324 323 329 334 260 248 242 259 277 308 312 322 318 315 322 325 348 331 326 283 273 225 248 233 242 235 300 357 333 322 316 305 306 302 296 287 285 285 284 280 273 274 278 276 269 288 230 217
308 311 308 315 318 325 321 319 300 239 250 243 248 259 280 282 285 312 314 305 303 295 348 343 256 241 348 258 240 245 264 317 328 312 300 293 291 290 287 285 281 277 271 270 270 266 263 260 257 255 258 268 224 206
302 303 307 316 323 333 323 293 264 258 250 255 271 286 303 300 295 295 307 307 298 306 217 228 258 255 242 252 259 282 288 284 284 284 286 285 283 286 288 282 279 274 269 260 267 253 253 243 247 242 240 250 209 207
300 303 310 317 324 329 294 237 229 267 265 291 291 297 303 297 292 293 296 303 245 233 161 169 245 239 245 241 263 274 279 286 288 289 287 285 282 282 282 280 277 274 268 253 260 236 239 234 231 230 236 214 216 196
301 305 307 308 317 305 276 256 227 271 284 293 304 295 306 306 301 299 295 277 190 153 149 214 226 244 258 272 277 277 281 285 287 287 288 289 287 277 286 277 269 264 259 259 247 227 228 226 221 215 210 199 231 199
315 314 324 327 292 245 267 287 257 275 298 293 294 310 305 302 308 307 313 200 205 212 219 244 258 286 299 301 304 300 298 295 282 283 283 317 321 301 298 295 284 269 257 250 211 224 221 223 210 205 192 208 209 177
294 312 325 278 265 253 263 256 269 296 289 280 295 296 297 322 330 323 315 235 225 250 262 285 298 305 305 306 312 317 316 313 322 320 331 328 322 316 314 313 305 286 259 234 221 218 216 213 198 202 192 186 193 192
304 331 267 247 258 256 265 267 265 277 276 303 324 328 327 319 307 309 274 314 266 289 318 325 329 322 313 322 328 329 332 330 339 351 346 338 340 336 337 340 337 287 232 214 207 202 201 192 190 188 185 167 174 185
287 263 251 247 225 267 280 241 246 277 298 307 315 315 296 309 304 283 234 246 283 307 319 332 330 328 334 335 333 338 343 347 358 355 345 339 352 6 12 11 15 34 122 144 179 187 186 184 178 163 155 173 183 187
251 238 213 254 236 239 252 241 233 229 262 313 302 279 270 298 304 299 275 277 336 328 324 339 345 345 336 337 345 357 357 355 358 360 354 359 11 23 37 45 48 80 106 135 167 163 165 152 173 179 185 188 202 212
246 215 203 233 213 216 262 306 332 280 288 308 276 255 296 322 279 262 270 341 333 329 331 335 338 328 333 332 337 347 357 2 8 21 6 22 26 26 46 63 87 114 83 98 115 136 148 164 171 188 197 213 218 225
252 238 214 242 268 283 276 288 298 295 293 258 273 301 301 273 266 274 21 352 319 325 327 327 332 327 329 332 336 340 358 330 359 25 23 32 33 29 51 71 107 144 25 32 140 154 161 174 188 203 217 229 238 239
242 277 268 252 254 268 295 302 275 264 225 228 280 272 258 226 263 320 336 310 319 326 329 333 322 324 352 3 8 6 14 32 64 44 64 48 56 59 76 95 116 132 164 175 189 216 175 210 220 223 226 224 223 230
235 241 259 272 270 262 238 236 259 260 281 297 286 276 269 283 292 300 301 310 314 310 316 331 343 356 359 6 358 25 24 25 37 41 34 46 57 342 341 2 346 356 234 334 303 275 253 237 244 254 252 267 268 168
259 242 235 264 250 236 236 234 268 284 288 285 285 290 289 288 292 294 293 297 302 300 313 317 329 16 29 29 36 43 37 29 27 44 57 70 54 53 58 69 55 67 318 306 345 1 22 26 35 89 127 117 112 126
222 255 273 257 263 261 271 279 283 285 284 282 279 275 281 292 302 300 296 295 298 311 329 340 14 41 47 36 36 51 40 32 44 41 37 47 74 71 69 70 56 64 65 73 72 61 80 98 102 107 111 108 108 110
227 215 230 250 285 298 303 288 286 284 279 271 273 276 271 273 285 293 284 294 300 324 356 356 25 351 43 53 55 61 77 72 74 69 64 82 80 86 95 97 84 84 79 69 66 66 75 89 95 95 100 103 101 106
228 249 264 281 273 262 312 327 290 291 279 256 262 263 272 266 280 281 284 288 293 325 340 345 18 30 42 60 76 62 62 58 54 60 53 58 79 74 92 101 86 72 61 60 63 76 100 101 112 119 120 115 112 110